Cittanova

La vittoria del Cittanova vale il primo posto Allievi Provinciali U17 [FOTO]

Il titolo Under 17 in palio sul sintetico “Juvenilia” di Polistena è andato al Cittanova, che nello spareggio ha battuto il Taurianova con il risultato di 3-0. La gara, molto combattuta e giocata davanti...

Cittanova non solo prima squadra ma anche settore giovanile

E' tempo di bilanci in casa Cittanova Calcio. A una giornata dalla conclusione del massimo torneo nazionale di Serie D la compagine del presidente Rocco Guerrisi è stata una piacevole sorpresa. Partita con propositi...

Cittanova sprecone lascia l’intera posta alla Cavese

Non basta alla Cavese la vittoria al “ Morreale Proto” per agguantare quella serie C persa la scorsa stagione causa la netta affermazione della Gelbison in quel di Troina e la conseguente promozione dei...

Cittanova, stagione da veri protagonisti

Mancano poche giornate alla conclusione del campionato di Serie D. Nel Girone I, dove sono presenti le formazioni calabresi, la Gelbison è ormai vicina a conquistare una storica promozione tra i pro. La stagione delle...

Cittanova – Portici 1-0, ci pensa Savasta

Nel turno infrasettimanale, valevole per la 35a giornata del campionato di Serie D, il Cittanova si mette alle spalle la delusione dell'eliminazione in Coppa Italia, superando di misura il Portici. Decisiva la rete al...

Licata – Cittanova 2-2, non basta Bonanno ai pianigiani

Il Cittanova torna da Licata con un pareggio. Al Liotta si è assistiti ad una bella sfida tra due formazioni che si sono affrontati a viso aperto, senza mai risparmiarsi. Il primo tempo vede le...

Cittanova, a Licata per l’assalto ai playoff

Il Cittanova di mister De Gaetano, quest'oggi è chiamato a tentare l'assalto ai playoff sul difficile campo del Licata. In questo match di recupero, valevole per la trentesima giornata del campionato di Serie D,...

Cittanova-San Luca 2-1, derby ai pianigiani

Il derby ionio-tirreno, valevole per la 36a giornata del campionato di Serie D del girone I tra Cittanova e San Luca, va ai pianigiani che si impongono per 2 a 1. Partita gradevole al...

Cittanova-San Luca, a voi lo spettacolo

Mancano ormai poche ore al calcio d'inizio del derby ionio-tirreno tra Cittanova e San Luca. In questo giovedì santo, al Monreale Proto le due formazioni vogliono vincere per poter dire ancora la loro in...

Il Cittanova si impone sul Trapani e va ai quarti di finale di Coppa

La sfida storica per l’ottavo di Coppa Italia serie D sorride al Cittanova Calcio che si impone con pieno merito su Trapani. La compagine di mister Di Gaetano replica il risultato in campionato dando...

Cittanova, brutta sconfitta casalinga con il Paternò

Che il 2022 per il Cittanova Calcio fosse iniziato male lo si sapeva, a testimoniarlo la debacle interna contro il Paternò per la dicianovesima giornata del girone di andata. Un romboante 0-5 che non...

Torna a sorridere il San Luca, a testa alta il Cittanova a Cava

In questa diciottesima giornata del girone I di Serie D, San Luca e Cittanova chiudono rispettivamente con una vittoria e un ko. Le due formazioni vivono momenti diametralmente opposti, ma il futuro sembra poter...
DataCasaRisultatiTrasfertaOra
2022-05-22 16:00:0022/05/224 - 3 16:00:0016:00
2022-05-15 16:00:0015/05/220 - 1 16:00:0016:00
2022-05-08 15:00:0008/05/223 - 1 15:00:0015:00
2022-05-04 15:00:0004/05/221 - 0 15:00:0015:00
2022-04-24 15:00:0024/04/223 - 0 15:00:0015:00
2022-04-14 15:00:0214/04/222 - 1 15:00:0215:00
2022-04-10 15:00:0110/04/224 - 2 15:00:0115:00
2022-04-03 15:00:0003/04/223 - 1 15:00:0015:00
2022-03-30 14:30:0030/03/222 - 2 14:30:0014:30
2022-03-27 14:30:0027/03/223 - 1 14:30:0014:30
2022-03-13 14:30:0013/03/224 - 0 14:30:0014:30
2022-03-06 14:30:0006/03/221 - 0 14:30:0014:30
2022-02-27 14:30:4627/02/221 - 0 14:30:4614:30
2022-02-20 14:30:3920/02/221 - 0 14:30:3914:30
2022-02-16 14:30:0016/02/221 - 2 14:30:0014:30
2022-02-06 14:30:0006/02/222 - 3 14:30:0014:30
2022-02-02 14:30:0002/02/223 - 0 14:30:0014:30
2022-01-30 14:30:0030/01/220 - 1 14:30:0014:30
2022-01-09 14:30:0009/01/220 - 5 14:30:0014:30
2021-12-22 14:30:0022/12/212 - 1 14:30:0014:30
2021-12-19 14:30:0019/12/212 - 1 14:30:0014:30
2021-12-12 14:30:0012/12/210 - 2 14:30:0014:30
2021-12-08 14:30:0008/12/212 - 2 14:30:0014:30
2021-12-05 14:30:0005/12/211 - 1 14:30:0014:30
2021-11-28 14:30:0028/11/210 - 0 14:30:0014:30
2021-11-21 14:30:0021/11/210 - 1 14:30:0014:30
2021-11-14 14:30:0014/11/211 - 4 14:30:0014:30
2021-11-07 14:30:0007/11/211 - 3 14:30:0014:30
2021-10-31 14:30:0031/10/212 - 0 14:30:0014:30
2021-10-24 14:30:0024/10/213 - 1 14:30:0014:30
2021-10-20 14:30:0020/10/211 - 2 14:30:0014:30
2021-10-17 14:30:0017/10/210 - 1 14:30:0014:30
2021-10-10 14:30:0010/10/215 - 0 14:30:0014:30
2021-10-03 14:30:0003/10/211 - 0 14:30:0014:30
2021-09-26 14:30:0026/09/210 - 1 14:30:0014:30
2021-09-19 14:30:0019/09/211 - 0 14:30:0014:30
2021-06-19 15:00:0019/06/212 - 1 15:00:0015:00
2021-06-16 15:00:0016/06/212 - 4 15:00:0015:00
2021-06-13 15:00:0013/06/211 - 2 15:00:0015:00
2021-05-23 15:00:0023/05/212 - 1 15:00:0015:00
2021-05-19 15:00:0019/05/210 - 1 15:00:0015:00
2021-05-16 15:00:0016/05/212 - 0 15:00:0015:00
2021-05-09 15:00:0009/05/212 - 1 15:00:0015:00
2021-04-18 15:00:0018/04/212 - 1 15:00:0015:00
2021-04-14 15:00:0014/04/210 - 0 15:00:0015:00
2021-04-11 15:00:0011/04/211 - 0 15:00:0015:00
2021-04-01 15:00:0001/04/211 - 1 15:00:0015:00
2021-03-28 15:00:0028/03/213 - 2 15:00:0015:00
2021-03-21 15:00:0021/03/212 - 2 15:00:0015:00
2021-03-07 15:00:0007/03/210 - 0 15:00:0015:00
2021-02-28 15:00:0028/02/210 - 0 15:00:0015:00
2021-02-24 15:00:0024/02/212 - 2 15:00:0015:00
2021-02-21 15:00:0021/02/210 - 0 15:00:0015:00
2021-02-14 15:00:0014/02/213 - 0 15:00:0015:00
2021-02-07 15:00:0007/02/210 - 1 15:00:0015:00
2021-02-03 15:00:0003/02/211 - 0 15:00:0015:00
2021-01-31 15:00:0031/01/211 - 1 15:00:0015:00
2021-01-24 15:00:0024/01/211 - 2 15:00:0015:00
2021-01-17 15:00:0017/01/212 - 4 15:00:0015:00
2021-01-10 15:00:0010/01/210 - 2 15:00:0015:00
2021-01-06 15:00:0006/01/211 - 5 15:00:0015:00
2020-12-23 15:00:0023/12/203 - 1 15:00:0015:00
2020-12-20 15:00:0020/12/201 - 4 15:00:0015:00
2020-12-13 15:00:0013/12/202 - 1 15:00:0015:00
2020-11-01 15:00:0001/11/202 - 1 15:00:0015:00
2020-10-25 15:00:0025/10/201 - 0 15:00:0015:00
2020-10-18 15:00:0018/10/201 - 2 15:00:0015:00
2020-10-11 15:00:0011/10/202 - 0 15:00:0015:00
2020-10-04 15:00:0004/10/200 - 4 15:00:0015:00
2020-09-27 15:00:0027/09/202 - 2 15:00:0015:00
2020-05-03 15:00:0003/05/20- 15:00:0015:00
2020-04-26 15:00:0026/04/20- 15:00:0015:00
2020-04-19 15:00:0019/04/20- 15:00:0015:00
2020-04-09 15:00:0009/04/20- 15:00:0015:00
2020-04-05 15:00:0005/04/20- 15:00:0015:00
2020-03-29 15:00:0029/03/20- 15:00:0015:00
2020-03-22 14:30:0022/03/20- 14:30:0014:30
2020-03-08 14:30:0008/03/20- 14:30:0014:30
2020-03-01 14:30:0001/03/201 - 0 14:30:0014:30
2020-02-23 14:30:0023/02/201 - 1 14:30:0014:30
2020-02-16 14:30:0016/02/202 - 0 14:30:0014:30
2020-02-09 14:30:0009/02/202 - 4 14:30:0014:30
2020-02-02 14:30:0002/02/203 - 0 14:30:0014:30
2020-01-26 14:30:0026/01/200 - 0 14:30:0014:30
2020-01-19 14:30:0019/01/202 - 0 14:30:0014:30
2020-01-12 14:30:0012/01/201 - 0 14:30:0014:30
2020-01-05 14:30:0005/01/203 - 1 14:30:0014:30
2019-12-22 14:30:0022/12/191 - 4 14:30:0014:30
2019-12-15 14:30:0015/12/192 - 1 14:30:0014:30
2019-12-08 14:30:0008/12/192 - 0 14:30:0014:30
2019-12-01 14:30:0001/12/191 - 3 14:30:0014:30
2019-11-24 14:30:0024/11/193 - 0 14:30:0014:30
2019-11-17 14:30:0017/11/192 - 0 14:30:0014:30
2019-11-10 14:30:0010/11/193 - 1 14:30:0014:30
2019-11-03 14:30:0003/11/192 - 1 14:30:0014:30
2019-10-27 14:30:0027/10/190 - 1 14:30:0014:30
2019-10-20 15:00:0020/10/192 - 0 15:00:0015:00
2019-10-13 15:00:0013/10/192 - 1 15:00:0015:00
2019-10-06 15:00:0006/10/194 - 1 15:00:0015:00
2019-09-29 15:00:0029/09/192 - 1 15:00:0015:00
2019-09-22 15:00:0022/09/190 - 1 15:00:0015:00
2019-09-15 15:00:0015/09/190 - 0 15:00:0015:00
2019-09-08 15:00:0008/09/193 - 2 15:00:0015:00
2019-09-01 15:00:0001/09/190 - 1 15:00:0015:00
2019-05-05 15:00:0005/05/191 - 1 15:00:0015:00
2019-04-28 15:00:0028/04/190 - 1 15:00:0015:00
2019-04-18 15:00:0018/04/190 - 0 15:00:0015:00
2019-04-14 15:00:0014/04/193 - 3 15:00:0015:00
2019-04-07 15:00:0007/04/192 - 1 15:00:0015:00
2019-03-31 15:00:0031/03/192 - 1 15:00:0015:00
2019-03-24 14:30:0024/03/191 - 6 14:30:0014:30
2019-03-17 14:30:0017/03/192 - 2 14:30:0014:30
2019-03-03 14:30:0003/03/193 - 2 14:30:0014:30
2019-02-24 14:30:0024/02/190 - 1 14:30:0014:30
2019-02-17 14:30:0017/02/192 - 0 14:30:0014:30
2019-02-10 14:30:0010/02/191 - 0 14:30:0014:30
2019-02-03 14:30:0003/02/192 - 1 14:30:0014:30
2019-01-27 14:30:0027/01/193 - 5 14:30:0014:30
2019-01-20 14:30:0020/01/193 - 2 14:30:0014:30
2019-01-13 14:30:0013/01/190 - 1 14:30:0014:30
2019-01-06 14:30:0006/01/191 - 1 14:30:0014:30
2018-12-23 14:30:0023/12/182 - 2 14:30:0014:30
2018-12-16 14:30:0016/12/184 - 1 14:30:0014:30
2018-12-12 14:30:0012/12/183 - 1 14:30:0014:30
2018-12-09 14:30:0009/12/181 - 3 14:30:0014:30
2018-12-02 14:30:0002/12/182 - 1 14:30:0014:30
2018-11-25 14:30:0025/11/181 - 0 14:30:0014:30
2018-11-18 14:30:0018/11/180 - 2 14:30:0014:30
2018-11-14 14:30:0014/11/180 - 2 14:30:0014:30
2018-11-11 14:30:0011/11/181 - 3 14:30:0014:30
2018-11-04 14:30:0004/11/183 - 0 14:30:0014:30
2018-10-28 14:30:0028/10/183 - 2 14:30:0014:30
2018-10-21 15:00:0021/10/180 - 4 15:00:0015:00
2018-10-14 15:00:0014/10/180 - 0 15:00:0015:00
2018-10-07 15:00:0007/10/182 - 2 15:00:0015:00
2018-09-30 15:00:0030/09/183 - 0 15:00:0015:00
2018-09-23 15:00:0023/09/181 - 0 15:00:0015:00
2018-09-16 15:00:0016/09/183 - 2 15:00:0015:00
2018-05-06 15:00:0006/05/185 - 0 15:00:0015:00
2018-04-29 15:00:0029/04/183 - 0 15:00:0015:00
2018-04-22 15:00:0022/04/180 - 0 15:00:0015:00
2018-04-15 15:00:0015/04/180 - 3 15:00:0015:00
2018-04-08 15:00:0008/04/180 - 0 15:00:0015:00
2018-03-29 15:00:0029/03/185 - 0 15:00:0015:00
2018-03-25 15:00:0025/03/182 - 1 15:00:0015:00
2018-03-18 14:30:0018/03/181 - 0 14:30:0014:30
2018-03-04 14:30:0004/03/181 - 0 14:30:0014:30
2018-02-25 14:30:0025/02/182 - 4 14:30:0014:30
2018-02-18 14:30:0018/02/180 - 0 14:30:0014:30
2018-02-11 14:30:0011/02/181 - 2 14:30:0014:30
2018-02-04 14:30:0004/02/182 - 0 14:30:0014:30
2018-01-28 14:30:0028/01/183 - 1 14:30:0014:30
2018-01-21 14:30:0021/01/183 - 0 14:30:0014:30
2018-01-14 14:30:0014/01/181 - 1 14:30:0014:30
2018-01-07 14:30:0007/01/183 - 0 14:30:0014:30
2017-12-17 14:30:0017/12/170 - 0 14:30:0014:30
2017-12-10 14:30:0010/12/175 - 0 14:30:0014:30
2017-12-03 14:30:0003/12/173 - 1 14:30:0014:30
2017-11-26 14:30:0026/11/171 - 0 14:30:0014:30
2017-11-19 14:30:0019/11/170 - 1 14:30:0014:30
2017-11-12 14:30:0012/11/170 - 1 14:30:0014:30
2017-11-05 14:30:0005/11/173 - 2 14:30:0014:30
2017-11-01 14:30:0001/11/172 - 2 14:30:0014:30
2017-10-29 14:30:0029/10/172 - 1 14:30:0014:30
2017-10-22 15:00:0022/10/174 - 0 15:00:0015:00
2017-10-15 15:00:0015/10/171 - 1 15:00:0015:00
2017-10-08 15:00:0008/10/173 - 4 15:00:0015:00
2017-10-01 15:00:0001/10/171 - 1 15:00:0015:00
2017-09-24 15:00:0024/09/171 - 1 15:00:0015:00
2017-09-17 15:00:0017/09/171 - 0 15:00:0015:00
2017-09-10 15:00:0010/09/171 - 0 15:00:0015:00
2017-09-03 15:00:0003/09/170 - 2 15:00:0015:00